Main page
METAR-TAF:

METAR-TAF

Airports :

Jam Airport

Bandar Kangan, Iran

latitude: 27-49-14N, longitude: 52-21-08E, elevation: 662 m

Current weather observation

The report was made 3 hours and 44 minutes ago, at 15:00 UTC
Wind 4 kt from the Southwest
Temperature 21°C
Humidity 43%
Pressure 1018 hPa
Visibility 10 km or more
no clouds below 1500 m and no cumulonimbus

METAR: OIBJ 191500Z 23004KT CAVOK 21/08 Q1018

Time: 22:14 (18:44 UTC)


TAF: missing

Weather observations and forecasts of more than 4000 airports (METAR and TAF reports).

The available stations are represented by yellow and red dots on the map.

Hover mouse over dot to see the name of the station.

Then click to see weather observations and forecasts.

To change the map : click on the green buttons with a black cross to zoom in, on the green button with a dash to zoom out, or on the green arrows for adjacent maps.


METAR-TAF: